Location: La Villeneuve
(48.2824°N, 4.4802°W)
Time: 09:59:56
(UTC+00:00)

Daily predictions for brighter satellites

Satellite Brightness Start Highest point End
(mag) Time Altitude Azimuth Time Altitude Azimuth Time Altitude Azimuth
Cosmos 1745 Rocket 4.0 19:06:16 10° N 19:12:36 69° ENE 19:18:48 10° SSE
Cosmos 2297 4.1 19:08:25 10° NNW 19:13:54 48° NE 19:19:23 10° SE
NOSS 0 Rocket 4.0 19:08:31 10° SSW 19:14:44 86° ESE 19:20:58 10° NNE
HJ-1C 3.3 19:11:42 10° SSE 19:15:02 76° ENE 19:18:25 10° N
STARLINK-1117 3.6 19:11:42 10° WNW 19:15:43 80° NNE 19:19:45 10° ESE
USA 234 3.9 19:10:43 10° ENE 19:16:33 34° SE 19:22:21 10° SSW
STARLINK-1121 4.4 19:13:23 10° WNW 19:17:23 45° N 19:21:23 10° E
Meteor 2-5 Rocket 3.7 19:12:15 10° N 19:17:58 80° ENE 19:23:33 10° SSE
STARLINK-1192 4.2 19:14:46 10° SSW 19:18:28 36° SE 19:22:12 10° ENE
STARLINK-1078 3.6 19:16:12 10° WNW 19:20:13 84° NNE 19:24:15 10° ESE
Cosmos 2237 Rocket 2.2 19:15:11 10° SSW 19:20:48 79° ESE 19:26:28 10° NNE
ADEOS Rocket 3.4 19:14:00 10° NNE 19:20:58 82° WNW 19:27:08 10° SSW
Cosmos 1805 3.2 19:17:18 10° S 19:21:12 70° E 19:25:06 10° NNE
STARLINK-1106 4.3 19:18:21 10° WNW 19:22:22 46° N 19:26:23 10° E
STARLINK-1244 4.1 19:19:28 10° SSW 19:23:15 38° SE 19:27:01 10° ENE
STARLINK-1201 3.2 19:20:24 10° SW 19:23:34 52° SSE 19:26:46 10° ENE
STARLINK-1108 3.5 19:20:43 10° WNW 19:24:45 88° NNE 19:28:48 10° ESE
Cosmos 2278 Rocket 3.2 19:20:42 10° NW 19:26:10 50° WSW 19:31:37 10° S
STARLINK-1112 4.3 19:23:22 10° WNW 19:27:23 47° N 19:31:25 10° E
CZ-2C R/B 4.0 19:24:16 10° NE 19:27:36 17° E 19:30:54 10° SE
STARLINK-1138 4.0 19:24:06 10° SSW 19:27:55 41° SE 19:31:45 10° ENE
Cosmos 1269 Rocket 4.3 19:23:24 10° S 19:28:23 43° ESE 19:33:23 10° NE
STARLINK-1209 2.6 19:25:59 10° WSW 19:28:53 76° SSE 19:31:47 10° ENE
STARLINK-1066 3.3 19:26:04 10° WNW 19:29:12 60° SSW 19:32:18 10° SE
STARLINK-1071 3.6 19:25:14 10° WNW 19:29:17 88° SSW 19:33:08 11° ESE
STARLINK-1081 3.3 19:26:33 10° WNW 19:29:38 59° SSW 19:32:40 10° SE
STARLINK-1228 2.6 19:26:59 10° WSW 19:29:51 77° SSE 19:32:44 10° ENE
STARLINK-1070 3.3 19:26:59 10° WNW 19:30:05 58° SSW 19:33:06 10° SE
STARLINK-1124 3.6 19:26:07 10° WNW 19:30:17 87° SSW 19:34:14 11° ESE
STARLINK-1069 3.3 19:27:24 10° WNW 19:30:31 58° SSW 19:33:34 10° SE
STARLINK-1085 3.3 19:27:51 10° WNW 19:30:57 58° SSW 19:34:00 10° SE
STARLINK-1086 3.3 19:28:21 10° WNW 19:31:26 57° SSW 19:34:25 11° SE
STARLINK-1095 3.3 19:28:48 10° WNW 19:31:53 56° SSW 19:34:50 11° SE
Cosmos 1553 Rocket 4.2 19:26:08 10° SSW 19:32:12 78° W 19:38:20 10° N
STARLINK-1077 3.3 19:29:14 10° WNW 19:32:18 56° SSW 19:35:16 11° SE
STARLINK-1128 4.2 19:28:22 10° WNW 19:32:25 49° NNE 19:36:15 11° E
STARLINK-1143 3.9 19:28:49 10° SW 19:32:41 44° SE 19:36:33 10° ENE
STARLINK-1075 3.3 19:29:42 10° WNW 19:32:46 55° SSW 19:35:42 11° SE
STARLINK-1093 3.4 19:30:07 10° WNW 19:33:13 55° SSW 19:36:10 11° SE
SL-8 R/B 3.7 19:28:31 10° W 19:33:19 90° NNW 19:38:02 10° E
Meteor 1-24 Rocket 3.6 19:27:44 10° N 19:33:20 79° ENE 19:38:42 10° SSE
STARLINK-1074 3.4 19:30:33 10° WNW 19:33:39 55° SSW 19:36:36 11° SE
STARLINK-1110 3.6 19:29:45 10° WNW 19:33:47 83° SSW 19:37:29 12° ESE
SeaSat 1 3.8 19:29:18 10° NNE 19:33:57 43° NW 19:38:36 10° WSW
STARLINK-1087 3.4 19:31:03 10° WNW 19:34:07 54° SSW 19:37:00 11° SE
STARLINK-1088 3.4 19:31:30 10° WNW 19:34:34 53° SSW 19:37:26 11° SE
CZ-4 R/B 4.0 19:31:48 10° SSW 19:34:54 23° W 19:37:59 10° NW
STARLINK-1115 3.4 19:31:56 10° WNW 19:35:01 53° SSW 19:37:55 11° SE
ARGOS 3.2 19:29:54 10° SSE 19:35:13 61° ENE 19:40:33 10° N
STARLINK-1076 3.4 19:32:22 10° WNW 19:35:27 53° SSW 19:38:20 11° SE
STARLINK-1092 3.4 19:32:50 10° WNW 19:35:55 52° SSW 19:38:47 11° SE
STARLINK-1080 3.4 19:33:19 10° WNW 19:36:22 52° SSW 19:39:10 12° SE
STARLINK-1090 3.5 19:33:45 10° WNW 19:36:48 51° SSW 19:39:36 12° SE
STARLINK-1089 3.5 19:34:13 10° WNW 19:37:16 51° SSW 19:40:02 12° SE
STARLINK-1113 4.2 19:33:21 10° WNW 19:37:25 50° NNE 19:41:02 12° E
STARLINK-1107 3.5 19:34:40 10° WNW 19:37:43 50° SSW 19:40:28 12° SE
MOS 1 4.3 19:33:55 10° SSE 19:39:32 72° ENE 19:45:11 10° NNW
Cosmos 1470 3.5 19:38:05 10° SSE 19:41:31 31° E 19:45:00 10° NNE
STARLINK-1119 4.1 19:38:20 10° WNW 19:42:23 51° NNE 19:45:48 14° E
STARLINK-1122 3.6 19:38:55 10° WNW 19:42:57 75° SSW 19:46:17 15° SE
STARLINK-1241 3.7 19:39:10 10° SW 19:43:04 52° SE 19:46:59 10° ENE
STARLINK-1233 2.8 19:40:11 10° WSW 19:43:18 76° SSE 19:46:21 11° ENE
STARLINK-1212 2.8 19:40:38 10° WSW 19:43:45 77° SSE 19:46:46 11° ENE
STARLINK-1105 2.8 19:41:05 10° WSW 19:44:12 77° SSE 19:47:13 11° ENE
STARLINK-1206 2.8 19:41:34 10° WSW 19:44:40 78° SSE 19:47:38 11° ENE
STARLINK-1247 2.8 19:42:01 10° WSW 19:45:07 79° SSE 19:48:03 11° ENE
STARLINK-1227 2.8 19:42:25 10° WSW 19:45:33 79° SSE 19:48:30 11° ENE
ATLAS CENTAUR R/B 4.2 19:43:23 10° NW 19:45:33 13° NNW 19:47:41 10° N
ISS -3.1 19:42:18 10° WNW 19:45:35 47° N 19:48:11 15° E
Cosmos 2315 Rocket 4.2 19:39:41 10° SSE 19:45:46 53° E 19:51:55 10° NNE
STARLINK-1218 2.8 19:42:54 10° WSW 19:46:01 80° SSE 19:48:55 12° ENE
SL-08 RB Rocket 3.9 19:41:57 10° SSE 19:46:21 53° ENE 19:50:48 10° N
STARLINK-1226 2.8 19:43:22 10° WSW 19:46:29 80° SSE 19:49:23 12° ENE
STARLINK-1254 2.8 19:43:46 10° WSW 19:46:54 81° SSE 19:49:48 12° ENE
STARLINK-1215 2.8 19:44:16 10° WSW 19:47:22 81° SSE 19:50:14 12° ENE
SJ-6B 2.9 19:43:24 10° SSE 19:47:25 64° ENE 19:51:31 10° N
STARLINK-1114 4.1 19:43:20 10° WNW 19:47:25 53° NNE 19:50:36 16° E
STARLINK-1126 3.7 19:43:33 10° WNW 19:47:34 70° SSW 19:50:44 16° SE
STARLINK-1239 3.6 19:43:43 10° SW 19:47:39 56° SE 19:51:30 11° ENE
STARLINK-1231 2.8 19:44:42 10° WSW 19:47:49 82° SSE 19:50:39 12° ENE
MetOp-A 4.5 19:42:58 10° SE 19:48:04 46° ENE 19:53:10 10° N
Resurs 1-3 4.3 19:44:43 12° SE 19:48:19 36° ENE 19:52:20 10° N
STARLINK-1232 2.8 19:45:36 10° WSW 19:48:44 83° SSE 19:51:31 12° ENE
STARLINK-1217 2.8 19:46:04 10° WSW 19:49:11 84° SSE 19:51:58 13° ENE
Cosmos 1758 3.9 19:45:39 10° SSE 19:49:25 37° E 19:53:12 10° NNE
STARLINK-1208 2.8 19:46:29 10° WSW 19:49:37 84° SSE 19:52:25 13° ENE
STARLINK-1229 2.8 19:46:57 10° WSW 19:50:05 85° SSE 19:52:49 13° ENE
STARLINK-1271 2.8 19:47:25 10° WSW 19:50:32 85° SSE 19:53:17 13° ENE
BREEZE-M DEB (TANK) 4.1 19:41:43 10° W 19:50:35 76° N 19:53:10 16° E
STARLINK-1270 2.8 19:47:52 10° WSW 19:50:59 86° SSE 19:53:42 13° ENE
Cosmos 304 Rocket 4.2 19:46:38 10° NNW 19:51:24 65° WSW 19:56:07 10° S
STARLINK-1154 2.8 19:48:18 10° WSW 19:51:25 87° SSE 19:54:07 13° ENE
STARLINK-1082 3.8 19:48:07 10° WNW 19:52:08 66° SSW 19:55:08 17° SE
STARLINK-1240 3.6 19:48:17 10° SW 19:52:14 60° SSE 19:55:56 12° ENE
STARLINK-1197 2.8 19:49:13 10° WSW 19:52:19 88° SSE 19:54:59 14° ENE
STARLINK-1130 (DARKSAT) 4.0 19:48:18 10° WNW 19:52:23 55° NNE 19:55:22 17° E
STARLINK-1189 2.8 19:49:40 10° WSW 19:52:47 88° SSE 19:55:26 14° ENE
STARLINK-1187 2.9 19:50:30 10° WSW 19:53:38 83° NNW 19:56:20 13° ENE
STARLINK-1188 2.8 19:50:34 10° WSW 19:53:40 89° SSW 19:56:17 14° ENE
CZ-2C R/B 2.9 19:48:47 10° SSE 19:53:52 89° ENE 19:58:45 10° NNW
STARLINK-1198 2.8 19:50:48 10° WSW 19:53:55 90° ESE 19:56:31 14° ENE
Cosmos 2369 Rocket 3.0 19:48:57 10° NNW 19:54:11 35° NE 19:57:50 17° ESE
STARLINK-1235 3.0 19:51:12 10° WSW 19:54:21 76° NNW 19:57:05 13° ENE
Abrixas rocket 4.2 19:53:29 10° S 19:54:14 12° SSE 19:54:14 12° SSE
STARLINK-1199 2.8 19:52:30 10° WSW 19:55:38 88° NNW 19:58:13 14° ENE
Resurs 01 Rocket 2.5 19:53:04 17° ESE 19:55:43 31° ENE 19:59:36 10° N
STARLINK-1191 2.8 19:52:58 10° WSW 19:56:05 88° NNW 19:58:39 15° ENE
STARLINK-67 3.2 19:53:35 10° W 19:56:06 50° NNW 19:58:04 15° NE
FREGAT/IRIS 2.7 19:53:34 10° S 19:56:15 63° WSW 19:58:59 10° NNW
STARLINK-1210 2.8 19:53:23 10° WSW 19:56:32 87° NNW 19:59:05 15° ENE
STARLINK-1100 3.8 19:52:41 10° WNW 19:56:42 62° SSW 19:59:31 18° SE
STARLINK-1216 3.5 19:52:53 10° SW 19:56:52 64° SSE 20:00:23 13° ENE
STARLINK-1221 2.8 19:53:52 10° WSW 19:57:00 87° NNW 19:59:33 15° ENE
STARLINK-1084 4.0 19:53:17 10° WNW 19:57:23 57° NNE 20:00:09 19° E
STARLINK-1219 2.8 19:54:19 10° WSW 19:57:27 86° NNW 19:59:58 15° ENE
STARLINK-1222 2.8 19:54:45 10° WSW 19:57:53 85° NNW 20:00:23 15° ENE
Cosmos 1733 3.5 19:54:17 10° SSW 19:58:02 68° WNW 20:01:48 10° N
STARLINK-1211 2.8 19:55:12 10° WSW 19:58:21 85° NNW 20:00:48 16° ENE
STARLINK-1214 2.9 19:55:40 10° WSW 19:58:48 84° NNW 20:01:15 16° ENE
STARLINK-1245 2.8 19:56:09 10° WSW 19:59:16 84° NNW 20:01:40 16° ENE
STARLINK-1238 2.9 19:56:34 10° WSW 19:59:42 83° NNW 20:02:07 16° ENE
Meteor 1-22 Rocket 4.2 19:54:54 10° SSW 20:00:12 80° WNW 20:05:32 10° N
STARLINK-1205 2.9 19:57:31 10° WSW 20:00:38 82° NNW 20:02:59 16° ENE
STARLINK-1204 2.9 19:57:57 10° WSW 20:01:04 82° NNW 20:03:24 17° ENE
STARLINK-1083 3.9 19:57:18 10° WNW 20:01:17 58° SSW 20:03:57 20° SE
STARLINK-1237 3.5 19:57:31 10° SW 20:01:31 68° SSE 20:04:52 14° ENE
STARLINK-1098 3.9 19:58:15 10° WNW 20:02:21 59° NNE 20:04:55 22° E
Cosmos 494 Rocket 4.2 19:57:22 10° SSW 20:02:30 74° WNW 20:07:44 10° NNE
SL-14 R/B 3.6 20:01:21 10° NNW 20:05:24 72° W 20:09:25 10° S
STARLINK-1125 4.0 20:01:57 10° WNW 20:05:54 54° SW 20:08:23 21° SE
Cosmos 1726 3.6 20:06:30 20° ENE 20:06:30 20° ENE 20:08:53 10° NE
STARLINK-1202 3.4 20:02:07 10° SW 20:06:07 73° SSE 20:09:18 16° ENE
SPOT 3 Rocket 3.5 20:01:00 10° SSE 20:06:11 70° ENE 20:11:24 10° N
STARLINK-1123 3.8 20:03:15 10° WNW 20:07:23 62° NNE 20:09:44 24° E
Meteor 1-21 Rocket 4.4 20:02:02 10° N 20:07:29 50° ENE 20:11:31 17° SE
STARLINK-1109 4.1 20:06:15 10° WNW 20:10:12 51° SW 20:12:32 22° SSE
CZ-4C R/B 4.4 20:05:38 10° WNW 20:10:14 24° NNW 20:15:32 10° NE
Cosmos 1709 Rocket 4.1 20:03:59 10° N 20:10:14 82° W 20:16:23 10° S
IRIDIUM 103 4.5 20:05:23 10° N 20:10:30 52° E 20:14:45 15° SSE
STARLINK-1246 3.4 20:07:11 10° WSW 20:11:15 78° SSE 20:14:18 17° ENE
STARLINK-1097 3.8 20:08:13 10° WNW 20:12:21 65° NNE 20:14:29 27° E
MOS 1 Rocket 3.9 20:08:00 10° NNE 20:12:56 42° E 20:18:02 10° SSE
Meteor 2-15 4.3 20:07:09 10° S 20:13:10 73° E 20:19:13 10° NNE
STARLINK-1091 4.2 20:10:57 10° WNW 20:14:51 47° SW 20:17:02 23° SSE
Cosmos 292 Rocket 4.1 20:12:12 10° NNW 20:16:51 48° ENE 20:19:06 27° ESE
STARLINK-1099 3.7 20:13:13 10° WNW 20:17:21 68° NNE 20:19:17 30° E
Cosmos 1943 4.4 20:19:28 21° E 20:19:28 21° E 20:22:41 10° NE
Cosmos 1943 Rocket 2.2 20:14:10 10° NNW 20:19:40 62° ENE 20:22:51 25° SE
STARLINK-1224 3.4 20:16:03 10° WSW 20:20:05 86° SSE 20:22:45 21° ENE
Ariane Rocket 4.4 20:17:05 10° SSW 20:21:50 39° W 20:26:35 10° NNW
STARLINK-1104 3.7 20:18:12 10° WNW 20:22:21 71° NNE 20:24:04 33° E
Cosmos 2074 Rocket 4.1 20:16:32 10° N 20:22:41 54° ENE 20:26:46 21° SE
Cosmos 1455 Rocket 4.3 20:18:48 10° SSW 20:22:56 43° WNW 20:27:07 10° N
STARLINK-1225 3.5 20:20:45 10° WSW 20:24:47 89° NNW 20:27:17 23° ENE
USA 186 3.8 20:22:57 10° SSW 20:26:02 31° W 20:29:06 10° NNW
STARLINK-1203 3.5 20:22:26 10° WSW 20:26:23 83° NNW 20:28:44 23° ENE
STARLINK-1144 3.6 20:23:10 10° WNW 20:27:19 75° NNE 20:28:50 37° E
IRIDIUM 106 4.2 20:23:35 10° N 20:28:49 73° E 20:32:57 16° S
STARLINK-1234 3.7 20:25:54 10° W 20:28:50 46° NNW 20:29:59 29° NE
Cosmos 1437 3.9 20:26:29 10° N 20:28:32 27° NE 20:28:32 27° NE
STARLINK-1230 3.5 20:25:24 10° WSW 20:29:26 85° NNW 20:31:44 25° ENE
Cosmos 1626 Rocket 4.0 20:25:40 10° NNW 20:30:02 62° W 20:34:20 10° S
Cosmos 1626 3.6 20:26:52 10° NNW 20:30:18 36° W 20:33:43 10° SSW
Cosmos 1953 2.3 20:29:29 29° SSE 20:31:16 56° E 20:35:11 10° NNE
Meteor 2-10 4.3 20:28:33 20° SSE 20:31:58 47° E 20:37:15 10° NNE
NOSS 3-3 (A) 4.4 20:27:03 10° S 20:32:14 34° ESE 20:37:57 10° NE
STARLINK-1103 3.6 20:28:08 10° WNW 20:32:17 79° NNE 20:33:37 42° ESE
NOSS 3-3 (C) 4.4 20:27:10 10° S 20:32:20 34° ESE 20:38:03 10° NE
Cosmos 2084 Rocket 3.5 20:29:21 10° NW 20:33:49 70° NE 20:35:19 40° ESE
STARLINK-1243 3.6 20:30:06 10° WSW 20:34:08 81° NNW 20:36:16 27° ENE
SL-16 R/B 2.4 20:28:54 10° SSW 20:34:34 76° WNW 20:40:16 10° NNE
Spot 2 Rocket 4.0 20:33:06 32° ESE 20:34:45 42° ENE 20:39:34 10° N
STARLINK-1101 3.5 20:33:08 10° WNW 20:37:17 83° NNE 20:38:25 47° ESE
Cosmos 1602 Rocket 3.9 20:33:11 10° NNW 20:37:39 67° W 20:41:06 16° S
STARLINK-1236 3.6 20:34:47 10° WSW 20:38:49 77° NNW 20:40:45 29° ENE
Aureole 3 3.5 20:38:26 14° S 20:41:51 89° E 20:46:59 10° N
IGS 5A 4.5 20:42:15 29° ENE 20:42:15 29° ENE 20:45:46 10° N
STARLINK-1102 3.5 20:38:06 10° WNW 20:42:16 87° NNE 20:43:11 53° ESE
Aureole 2 Rocket 2.3 20:39:07 10° NNW 20:42:37 66° ENE 20:42:44 65° ENE
DMSP B5D2-2 4.0 20:40:59 10° NNE 20:46:14 87° ESE 20:51:28 10° SSW
H-2A R/B 3.8 20:42:02 10° SSW 20:46:41 31° W 20:51:17 10° NNW
STARLINK-1111 3.5 20:43:05 10° WNW 20:47:15 88° SSW 20:47:58 60° ESE
STARLINK-1269 3.7 20:44:13 10° WSW 20:48:16 70° NNW 20:49:49 35° NE
Terra 3.5 20:49:37 19° ENE 20:49:37 19° ENE 20:52:50 10° NNE
STARLINK-1073 3.5 20:48:04 10° WNW 20:52:13 84° SSW 20:52:45 67° SE
STARLINK-1200 3.8 20:48:57 10° WSW 20:52:58 67° NNW 20:54:21 38° NE
CZ-2C R/B 4.4 20:48:28 10° N 20:53:09 57° WNW 20:57:45 10° SSW
Cosmos 1703 3.6 20:49:37 10° N 20:53:09 49° ENE 20:53:09 49° ENE
Cosmos 1726 Rocket 4.3 20:55:08 36° ENE 20:55:08 36° ENE 20:58:23 10° NNE
ATLAS 2AS CENTAUR R/B 3.4 20:46:58 10° NW 20:54:26 47° NE 20:57:42 30° E
Cosmos 1603 3.7 20:53:26 27° S 20:56:15 51° ESE 21:01:42 10° NE
Meteor 1-16 Rocket 4.0 20:54:16 33° SSE 20:56:35 65° E 21:02:00 10° NNE
Cosmos 1825 Rocket 3.4 20:52:36 10° N 20:57:04 79° E 20:57:49 60° SSE
STARLINK-1121 3.4 20:53:03 10° WNW 20:57:12 79° SSW 20:57:32 72° SSE
STARLINK-1192 3.9 20:53:37 10° WSW 20:57:38 64° NNW 20:58:50 41° NE
STARLINK-1201 4.0 20:56:46 10° W 20:59:54 43° NNW 21:00:05 42° N
USA 234 3.2 20:53:27 10° NE 21:00:01 86° NNW 21:06:35 10° WSW
Cosmos 2327 Rocket 4.4 20:54:37 10° N 21:00:54 72° E 21:03:23 39° SSE
STARLINK-1106 3.5 20:58:01 10° WNW 21:02:10 74° SSW 21:02:18 73° S
STARLINK-1244 3.9 20:58:26 10° W 21:02:27 61° NNW 21:03:26 45° NE
MetOp-B 4.0 21:01:14 44° SSE 21:02:59 81° ENE 21:08:22 10° NNW
STARLINK-1209 4.5 21:01:13 10° WNW 21:03:28 31° NNW 21:03:28 31° NNW
Cosmos 1758 Rocket 3.7 21:01:59 10° NNW 21:06:21 71° W 21:07:20 51° SSW
STARLINK-1112 3.6 21:03:01 10° WNW 21:07:06 69° SW 21:07:06 69° SW
STARLINK-1138 4.0 21:03:09 10° W 21:07:10 59° NNW 21:07:57 48° NNE
CZ-2C R/B 2.7 21:03:17 10° N 21:08:28 73° WNW 21:13:37 10° SSW
Cosmos 1992 Rocket 4.1 21:03:54 10° NNW 21:09:06 69° WSW 21:10:43 43° S
COSMOS 2455 4.1 21:04:16 10° NNW 21:09:28 29° NE 21:11:09 25° ENE
Meteor 1-11 4.2 21:05:16 10° N 21:11:04 65° ENE 21:12:06 55° SE
STARLINK-1143 4.1 21:07:58 10° W 21:11:58 57° NNW 21:12:34 50° NNE
STARLINK-1128 3.8 21:08:01 10° WNW 21:11:54 63° SW 21:11:54 63° SW
Cosmos 1953 Rocket 3.4 21:08:15 10° N 21:12:43 78° E 21:12:43 78° E
Cosmos 2184 Rocket 4.2 21:07:12 10° NNW 21:13:31 71° W 21:17:03 27° S
Cosmos 1295 Rocket 4.5 21:09:17 10° N 21:15:31 64° ENE 21:16:48 53° SE
SL-8 R/B 3.5 21:11:07 10° W 21:15:54 79° SSW 21:16:00 78° S
STARLINK-1113 4.0 21:13:00 10° WNW 21:16:41 57° WSW 21:16:41 57° WSW
Cosmos 2251 Rocket 3.6 21:11:52 10° SSW 21:17:14 81° WNW 21:22:39 10° NNE
Meteor 2-17 Rocket 4.3 21:13:10 10° N 21:19:20 83° E 21:21:00 51° SSE
Cosmos 1606 Rocket 3.5 21:20:20 85° NW 21:20:20 85° NW 21:24:45 10° N
Cosmos 1656 Rocket 3.6 21:16:17 10° NNW 21:21:59 70° ENE 21:22:37 64° ESE
STARLINK-1119 4.2 21:17:59 10° WNW 21:21:27 50° WSW 21:21:27 50° WSW
STARLINK-1241 4.2 21:18:22 10° W 21:22:17 52° NNW 21:22:24 52° N
ISS -2.1 21:19:10 10° WNW 21:21:09 32° WNW 21:21:09 32° WNW
STARLINK-1239 4.3 21:22:59 10° W 21:26:49 50° NNW 21:26:49 50° NNW
STARLINK-1114 4.4 21:23:00 10° WNW 21:26:15 45° WSW 21:26:15 45° WSW
USA 245 4.0 21:27:48 66° SSW 21:28:27 78° WSW 21:34:15 10° NNW
ERS-1 Rocket 3.1 21:28:47 61° NE 21:28:47 61° NE 21:33:31 10° N
BREEZE-M DEB (TANK) 4.1 21:25:17 10° WSW 21:26:52 21° WSW 21:26:52 21° WSW
STARLINK-1240 4.4 21:27:37 10° W 21:31:15 48° NNW 21:31:15 48° NNW
Resurs 01 Rocket 3.2 21:30:38 25° SW 21:32:10 31° W 21:36:08 10° NNW
SPOT 5 3.5 21:35:18 42° NNE 21:35:18 42° NNE 21:38:29 10° N
Cosmos 2154 Rocket 4.1 21:28:05 10° NNW 21:34:27 76° W 21:36:21 48° S
Cosmos 2369 Rocket 2.9 21:32:55 10° NW 21:38:22 47° WSW 21:39:38 40° SW
Cosmos 1726 3.8 21:40:56 32° W 21:41:05 32° WNW 21:44:30 10° N
SL-24 R/B 4.5 21:36:04 10° N 21:41:11 88° W 21:41:21 85° SSW
Cosmos 2263 4.4 21:36:49 10° NW 21:42:20 59° WSW 21:42:58 55° SW
Landsat 7 4.1 21:45:26 65° W 21:45:26 65° W 21:49:57 10° NNW
Cosmos 967 Rocket 4.4 21:40:02 10° SW 21:46:30 90° NE 21:53:03 10° NE
Cosmos 2228 3.9 21:47:49 47° WNW 21:47:49 47° WNW 21:51:45 10° N
Cosmos 921 Rocket 4.5 21:43:45 10° N 21:46:08 30° N 21:46:08 30° N
Cosmos 962 Rocket 4.3 21:44:14 10° N 21:50:29 89° W 21:50:55 78° S
Nadezhda 1 Rocket 4.4 21:50:49 30° SW 21:54:01 61° WNW 22:00:22 10° N
SL-8 Rocket 3.9 21:50:27 10° N 21:56:35 71° ENE 21:56:35 71° ENE
Cosmos 2058 Rocket 4.2 22:01:23 41° NNW 22:01:23 41° NNW 22:04:28 10° N
Cosmos 1943 3.4 22:01:06 59° WSW 22:01:58 68° WNW 22:07:40 10° NNE
Cosmos 1943 Rocket 3.9 21:58:41 10° NW 22:02:58 23° WSW 22:04:24 21° SW
Cosmos 2366 rocket 4.1 21:57:49 10° N 22:03:19 60° NE 22:03:19 60° NE
Mayak 1.6 22:06:52 10° NNE 22:06:55 10° NNE 22:06:55 10° NNE
SPOT 1/Viking Rocket 4.3 22:12:43 46° W 22:12:43 46° W 22:17:32 10° NNW
NOSS 3-4 (A) 3.7 22:06:03 10° NW 22:13:02 88° SW 22:13:24 82° SSE
NOSS 3-4 (C) 3.7 22:06:09 10° NW 22:13:08 89° SW 22:13:29 82° SSE
NOSS 3-3 (A) 4.5 22:16:52 10° WSW 22:22:46 58° NW 22:29:29 10° NE
NOSS 3-3 (C) 4.4 22:16:58 10° WSW 22:22:52 59° NW 22:29:36 10° NE
Cosmos 1697 Rocket 4.5 22:21:51 10° N 22:26:03 21° NE 22:26:03 21° NE
Terra 3.1 22:28:29 39° NW 22:28:29 39° NW 22:31:33 10° NNW
USA 234 4.1 22:36:31 10° ENE 22:42:43 47° NNW 22:48:53 10° W
ATLAS 2AS CENTAUR R/B 3.1 22:38:17 10° NW 22:45:08 56° WSW 22:45:08 56° WSW
Cosmos 1980 Rocket 4.2 22:47:01 10° N 22:50:54 19° NE 22:50:54 19° NE
COSMOS 2455 3.6 22:49:58 10° NW 22:54:18 49° NW 22:54:18 49° NW
ATLAS CENTAUR R/B 4.4 23:04:55 10° N 23:05:26 11° N 23:05:26 11° N
Mayak 1.8 23:42:48 10° NNW 23:43:29 13° NNW 23:43:29 13° NNW
CZ-4C R/B 3.6 23:44:49 10° NW 23:51:22 45° NE 23:51:43 44° NE
